Voltar ao catálogo

DMSP 5D-2 F11 DEB

AtivoPO
NORAD 28326·DEBRIS·🇺🇸 United States

Lançado Nov 28, 1991 de Vandenberg Space Force Base

Loading…

Próximas Passagens (próximas 24 horas)

TLE

AtualizadoSource: Space-Track

Época: Sep 14, 2026, 06:04 UTC

1 28326U 91082AP  26257.25343834  .00004961  00000-0  13260-2 0  9999
2 28326  98.8176   7.6330 0044798  99.4502 261.1758 14.48198269155915

Acompanhe DMSP 5D-2 F11 DEB em tempo real com AllMySat

Download on the App Store